Location: Unspecified
(0.0000°N, 0.0000°E)
Time: 17:52:26
(UTC+00:00)

deb r/b Ablestar - Pass Details

Date: 17 November 2025
Orbit: 783 x 882 km, 66.7° (Epoch: 05 December)

Event Time Altitude Azimuth Distance (km) Brightness Sun altitude
Exits shadow 03:02:10 26° 110° (ESE) 1,508 ? -38.1°
Drops below altitude 10° 03:05:03 10° 135° (SE) 2,361 ? -37.4°
Sets 03:07:41 0° 144° (SE) 3,305 ? -36.8°
